ASH3981 KIAD-KCLE

Flight info

Callsign ASH3981
Flight time 0h 50m
Altitude 32000
Route JERES2 JERES J211 JST UPPRR TRYBE4
Aircraft E75L/M-SDE3GILORVW/S

Departure

Time 2026-05-04 23:36
Airport Washington Dulles International Airport (KIAD)

Arrival

Time 2026-05-05 00:27
Airport Cleveland Hopkins International Airport (KCLE)
Time Latitude Longitude Altitude Speed Heading
2026-05-04 23:06 38.94833 -77.44094 294 ft 0 kts 311°
2026-05-04 23:24 38.94834 -77.44094 294 ft 0 kts 311°
2026-05-04 23:25 38.94835 -77.44096 294 ft 0 kts 311°
2026-05-04 23:25 38.94826 -77.44084 295 ft 2 kts 314°
2026-05-04 23:25 38.94816 -77.44070 295 ft 2 kts 314°
2026-05-04 23:25 38.94806 -77.44057 295 ft 2 kts 314°
2026-05-04 23:26 38.94797 -77.44050 295 ft 1 kts
2026-05-04 23:26 38.94786 -77.44056 295 ft 2 kts 32°
2026-05-04 23:26 38.94773 -77.44066 296 ft 2 kts 30°
2026-05-04 23:26 38.94760 -77.44075 296 ft 2 kts 30°
2026-05-04 23:27 38.94747 -77.44085 296 ft 2 kts 30°
2026-05-04 23:27 38.94738 -77.44091 296 ft 1 kts 27°
2026-05-04 23:27 38.94729 -77.44091 296 ft 1 kts 327°
2026-05-04 23:27 38.94723 -77.44080 296 ft 1 kts 274°
2026-05-04 23:28 38.94723 -77.44074 296 ft 0 kts 270°
2026-05-04 23:29 38.94723 -77.44081 296 ft 2 kts 270°
2026-05-04 23:29 38.94723 -77.44117 295 ft 6 kts 270°
2026-05-04 23:29 38.94722 -77.44193 294 ft 10 kts 272°
2026-05-04 23:30 38.94726 -77.44312 293 ft 14 kts 269°
2026-05-04 23:30 38.94727 -77.44460 293 ft 19 kts 270°
2026-05-04 23:30 38.94726 -77.44660 293 ft 25 kts 270°
2026-05-04 23:30 38.94730 -77.44915 291 ft 30 kts 271°
2026-05-04 23:31 38.94732 -77.45200 291 ft 33 kts 271°
2026-05-04 23:31 38.94733 -77.45494 289 ft 31 kts 269°
2026-05-04 23:31 38.94628 -77.45609 289 ft 21 kts 178°
2026-05-04 23:31 38.94478 -77.45610 289 ft 21 kts 181°
2026-05-04 23:32 38.94332 -77.45613 292 ft 20 kts 181°
2026-05-04 23:32 38.94190 -77.45615 292 ft 20 kts 181°
2026-05-04 23:32 38.94047 -77.45620 290 ft 20 kts 178°
2026-05-04 23:32 38.93897 -77.45618 288 ft 21 kts 182°
2026-05-04 23:33 38.93745 -77.45621 287 ft 22 kts 180°
2026-05-04 23:33 38.93639 -77.45513 285 ft 17 kts 135°
2026-05-04 23:33 38.93575 -77.45503 283 ft 8 kts 199°
2026-05-04 23:33 38.93510 -77.45534 282 ft 11 kts 201°
2026-05-04 23:34 38.93471 -77.45553 281 ft 0 kts 201°
2026-05-04 23:34 38.93460 -77.45558 281 ft 3 kts 201°
2026-05-04 23:35 38.93422 -77.45575 280 ft 7 kts 199°
2026-05-04 23:35 38.93375 -77.45632 280 ft 11 kts 277°
2026-05-04 23:35 38.93393 -77.45702 280 ft 0 kts 290°
2026-05-04 23:35 38.93395 -77.45707 280 ft 2 kts 290°
2026-05-04 23:36 38.93445 -77.45883 281 ft 55 kts 290°
2026-05-04 23:36 38.93674 -77.46657 292 ft 126 kts 290°
2026-05-04 23:36 38.94065 -77.47929 409 ft 170 kts 287°
2026-05-04 23:36 38.94557 -77.49356 1055 ft 184 kts 289°
2026-05-04 23:37 38.95143 -77.50969 1452 ft 213 kts 289°
2026-05-04 23:37 38.95812 -77.52808 1819 ft 241 kts 289°
2026-05-04 23:37 38.96536 -77.54838 2416 ft 259 kts 290°
2026-05-04 23:37 38.97454 -77.56819 3414 ft 266 kts 314°
2026-05-04 23:38 38.99072 -77.57801 4702 ft 266 kts 347°
2026-05-04 23:38 39.00892 -77.57461 5600 ft 279 kts 20°
2026-05-04 23:38 39.02694 -77.56612 6379 ft 275 kts 360°
2026-05-04 23:38 39.04564 -77.56860 7124 ft 272 kts 346°
2026-05-04 23:39 39.06434 -77.57129 7906 ft 276 kts 351°
2026-05-04 23:39 39.08368 -77.57245 8664 ft 280 kts 353°
2026-05-04 23:39 39.10311 -77.57282 9443 ft 282 kts 354°
2026-05-04 23:39 39.12264 -77.57282 10201 ft 284 kts 355°
2026-05-04 23:40 39.14251 -77.57264 10860 ft 289 kts 355°
2026-05-04 23:40 39.16291 -77.57237 11402 ft 298 kts 355°
2026-05-04 23:40 39.18395 -77.57205 11899 ft 308 kts 356°
2026-05-04 23:40 39.20575 -77.57169 12399 ft 318 kts 356°
2026-05-04 23:41 39.22811 -77.57130 13000 ft 323 kts 356°
2026-05-04 23:41 39.25047 -77.57091 13662 ft 326 kts 356°
2026-05-04 23:41 39.27298 -77.57053 14324 ft 328 kts 356°
2026-05-04 23:41 39.29592 -77.57013 14962 ft 331 kts 356°
2026-05-04 23:42 39.31914 -77.56973 15560 ft 335 kts 356°
2026-05-04 23:42 39.34249 -77.56933 16144 ft 338 kts 356°
2026-05-04 23:42 39.36618 -77.56892 16724 ft 342 kts 357°
2026-05-04 23:42 39.38976 -77.56840 16964 ft 340 kts
2026-05-04 23:43 39.41295 -77.56117 17024 ft 351 kts 15°
2026-05-04 23:43 39.43629 -77.55076 17006 ft 352 kts 11°
2026-05-04 23:43 39.46031 -77.54940 17060 ft 348 kts 343°
2026-05-04 23:43 39.48172 -77.56292 17569 ft 343 kts 316°
2026-05-04 23:44 39.49538 -77.58726 18305 ft 336 kts 290°
2026-05-04 23:44 39.50182 -77.61577 19067 ft 334 kts 285°
2026-05-04 23:44 39.50849 -77.64448 19701 ft 336 kts 293°
2026-05-04 23:44 39.52028 -77.67040 20269 ft 341 kts 305°
2026-05-04 23:45 39.53533 -77.69434 20821 ft 345 kts 309°
2026-05-04 23:45 39.55159 -77.71738 21335 ft 350 kts 311°
2026-05-04 23:45 39.56855 -77.74037 21887 ft 353 kts 312°
2026-05-04 23:45 39.58551 -77.76295 22447 ft 355 kts 312°
2026-05-04 23:46 39.60281 -77.78584 22989 ft 358 kts 313°
2026-05-04 23:46 39.62042 -77.80911 23541 ft 360 kts 313°
2026-05-04 23:46 39.63788 -77.83218 24062 ft 363 kts 313°
2026-05-04 23:46 39.65573 -77.85577 24575 ft 366 kts 313°
2026-05-04 23:47 39.67331 -77.87901 25112 ft 367 kts 313°
2026-05-04 23:47 39.69132 -77.90283 25593 ft 370 kts 313°
2026-05-04 23:47 39.70924 -77.92657 26063 ft 372 kts 313°
2026-05-04 23:47 39.72740 -77.95064 26503 ft 374 kts 313°
2026-05-04 23:48 39.74551 -77.97466 26946 ft 377 kts 313°
2026-05-04 23:48 39.76393 -77.99912 27377 ft 379 kts 313°
2026-05-04 23:48 39.78246 -78.02374 27807 ft 381 kts 313°
2026-05-04 23:48 39.80098 -78.04836 28247 ft 383 kts 313°
2026-05-04 23:49 39.81966 -78.07322 28654 ft 385 kts 313°
2026-05-04 23:49 39.83848 -78.09830 29020 ft 388 kts 312°
2026-05-04 23:49 39.85625 -78.12495 29352 ft 390 kts 309°
2026-05-04 23:49 39.87411 -78.15240 29682 ft 394 kts 309°
2026-05-04 23:50 39.89196 -78.17966 30070 ft 396 kts 309°
2026-05-04 23:50 39.90975 -78.20682 30427 ft 398 kts 309°
2026-05-04 23:50 39.92786 -78.23447 30763 ft 400 kts 309°
2026-05-04 23:50 39.94597 -78.26215 31072 ft 403 kts 310°
2026-05-04 23:51 39.96410 -78.28988 31367 ft 405 kts 310°
2026-05-04 23:51 39.98231 -78.31775 31663 ft 408 kts 310°
2026-05-04 23:51 40.00074 -78.34596 31860 ft 408 kts 310°
2026-05-04 23:51 40.01933 -78.37447 31880 ft 417 kts 310°
2026-05-04 23:52 40.05754 -78.43314 31892 ft 434 kts 310°
2026-05-04 23:52 40.09671 -78.49340 31883 ft 437 kts 310°
2026-05-04 23:53 40.13586 -78.55373 31882 ft 434 kts 310°
2026-05-04 23:53 40.17495 -78.61409 31888 ft 437 kts 310°
2026-05-04 23:54 40.21413 -78.67472 31888 ft 437 kts 309°
2026-05-04 23:54 40.25306 -78.73507 31889 ft 436 kts 309°
2026-05-04 23:55 40.29235 -78.79610 31900 ft 439 kts 309°
2026-05-04 23:56 40.35337 -78.88465 31897 ft 439 kts 313°
2026-05-04 23:56 40.39524 -78.94232 31893 ft 439 kts 313°
2026-05-04 23:57 40.43717 -79.00030 31882 ft 438 kts 313°
2026-05-04 23:57 40.47890 -79.05812 31859 ft 437 kts 313°
2026-05-04 23:58 40.52062 -79.11603 31870 ft 438 kts 312°
2026-05-04 23:58 40.56231 -79.17403 31868 ft 437 kts 312°
2026-05-04 23:59 40.60388 -79.23196 31859 ft 437 kts 312°
2026-05-04 23:59 40.64558 -79.29020 31842 ft 437 kts 312°
2026-05-05 00:00 40.68717 -79.34839 31838 ft 436 kts 312°
2026-05-05 00:00 40.72868 -79.40656 31827 ft 437 kts 312°
2026-05-05 00:01 40.77021 -79.46491 31825 ft 436 kts 312°
2026-05-05 00:01 40.81160 -79.52315 31814 ft 436 kts 312°
2026-05-05 00:02 40.85272 -79.58113 31816 ft 431 kts 312°
2026-05-05 00:02 40.89358 -79.63886 31801 ft 431 kts 311°
2026-05-05 00:02 40.91403 -79.66780 31471 ft 429 kts 311°
2026-05-05 00:03 40.93430 -79.69649 31010 ft 424 kts 311°
2026-05-05 00:03 40.95398 -79.72441 30552 ft 420 kts 311°
2026-05-05 00:03 40.97393 -79.75272 30093 ft 417 kts 311°
2026-05-05 00:03 40.99363 -79.78069 29628 ft 415 kts 311°
2026-05-05 00:04 41.01296 -79.80817 29181 ft 411 kts 311°
2026-05-05 00:04 41.03259 -79.83611 28718 ft 410 kts 311°
2026-05-05 00:04 41.05190 -79.86360 28265 ft 407 kts 311°
2026-05-05 00:04 41.07093 -79.89073 27814 ft 404 kts 311°
2026-05-05 00:05 41.09009 -79.91806 27378 ft 401 kts 310°
2026-05-05 00:05 41.10891 -79.94495 26929 ft 399 kts 310°
2026-05-05 00:05 41.12765 -79.97173 26483 ft 396 kts 310°
2026-05-05 00:05 41.14627 -79.99837 26046 ft 392 kts 310°
2026-05-05 00:06 41.16463 -80.02467 25619 ft 390 kts 310°
2026-05-05 00:06 41.18283 -80.05075 25191 ft 387 kts 310°
2026-05-05 00:06 41.20107 -80.07691 24762 ft 385 kts 310°
2026-05-05 00:06 41.21914 -80.10287 24336 ft 382 kts 310°
2026-05-05 00:07 41.23711 -80.12897 23900 ft 379 kts 306°
2026-05-05 00:07 41.24970 -80.15887 23506 ft 373 kts 291°
2026-05-05 00:07 41.25961 -80.19074 23016 ft 372 kts 290°
2026-05-05 00:07 41.26918 -80.22226 22541 ft 366 kts 290°
2026-05-05 00:08 41.27850 -80.25319 22086 ft 363 kts 290°
2026-05-05 00:08 41.28782 -80.28423 21627 ft 359 kts 290°
2026-05-05 00:08 41.29693 -80.31462 21175 ft 357 kts 290°
2026-05-05 00:08 41.30612 -80.34534 20735 ft 355 kts 290°
2026-05-05 00:09 41.31517 -80.37563 20279 ft 353 kts 290°
2026-05-05 00:09 41.32408 -80.40548 19842 ft 350 kts 290°
2026-05-05 00:09 41.33306 -80.43562 19388 ft 347 kts 290°
2026-05-05 00:09 41.34190 -80.46529 18945 ft 344 kts 290°
2026-05-05 00:10 41.35065 -80.49469 18530 ft 342 kts 290°
2026-05-05 00:10 41.35928 -80.52373 18089 ft 340 kts 290°
2026-05-05 00:10 41.36792 -80.55287 17657 ft 338 kts 290°
2026-05-05 00:10 41.37647 -80.58170 17262 ft 334 kts 290°
2026-05-05 00:11 41.38501 -80.61052 17090 ft 334 kts 290°
2026-05-05 00:11 41.39349 -80.63919 16693 ft 332 kts 290°
2026-05-05 00:11 41.40186 -80.66752 16267 ft 329 kts 289°
2026-05-05 00:11 41.41019 -80.69578 15878 ft 325 kts 289°
2026-05-05 00:12 41.41827 -80.72334 15442 ft 322 kts 289°
2026-05-05 00:12 41.42469 -80.74522 15142 ft 320 kts 289°
2026-05-05 00:12 41.43274 -80.77270 14703 ft 318 kts 289°
2026-05-05 00:12 41.44067 -80.79983 14277 ft 314 kts 289°
2026-05-05 00:13 41.44857 -80.82683 13890 ft 312 kts 289°
2026-05-05 00:13 41.45644 -80.85377 13479 ft 309 kts 288°
2026-05-05 00:13 41.46420 -80.88040 13075 ft 307 kts 288°
2026-05-05 00:13 41.47180 -80.90648 12681 ft 305 kts 288°
2026-05-05 00:14 41.47944 -80.93272 12271 ft 302 kts 288°
2026-05-05 00:14 41.48698 -80.95865 11874 ft 299 kts 288°
2026-05-05 00:14 41.49439 -80.98415 11479 ft 293 kts 288°
2026-05-05 00:14 41.50169 -81.00930 11107 ft 284 kts 288°
2026-05-05 00:15 41.50869 -81.03343 10740 ft 276 kts 288°
2026-05-05 00:15 41.51485 -81.05682 10362 ft 264 kts 277°
2026-05-05 00:15 41.51505 -81.08051 10104 ft 252 kts 267°
2026-05-05 00:15 41.51423 -81.10377 9834 ft 248 kts 267°
2026-05-05 00:16 41.51336 -81.12648 9558 ft 248 kts 267°
2026-05-05 00:16 41.51244 -81.14957 9274 ft 248 kts 266°
2026-05-05 00:16 41.51151 -81.17239 9001 ft 247 kts 266°
2026-05-05 00:16 41.51057 -81.19498 8737 ft 245 kts 266°
2026-05-05 00:17 41.50963 -81.21765 8455 ft 245 kts 266°
2026-05-05 00:17 41.50868 -81.24031 8193 ft 244 kts 266°
2026-05-05 00:17 41.50773 -81.26279 7924 ft 245 kts 266°
2026-05-05 00:17 41.50677 -81.28548 7670 ft 241 kts 266°
2026-05-05 00:18 41.50584 -81.30714 7424 ft 233 kts 266°
2026-05-05 00:18 41.50493 -81.32858 7179 ft 230 kts 266°
2026-05-05 00:18 41.50402 -81.34952 6936 ft 230 kts 266°
2026-05-05 00:18 41.50310 -81.37096 6684 ft 230 kts 266°
2026-05-05 00:19 41.50218 -81.39211 6432 ft 229 kts 265°
2026-05-05 00:19 41.50126 -81.41332 6174 ft 229 kts 265°
2026-05-05 00:19 41.50088 -81.43434 5964 ft 225 kts 269°
2026-05-05 00:19 41.50136 -81.45442 5939 ft 207 kts 269°
2026-05-05 00:20 41.50179 -81.47276 5892 ft 193 kts 269°
2026-05-05 00:20 41.50220 -81.49047 5872 ft 192 kts 269°
2026-05-05 00:20 41.50261 -81.50846 5777 ft 196 kts 269°
2026-05-05 00:20 41.50303 -81.52670 5597 ft 198 kts 269°
2026-05-05 00:21 41.50344 -81.54495 5390 ft 197 kts 269°
2026-05-05 00:21 41.50386 -81.56336 5170 ft 197 kts 269°
2026-05-05 00:21 41.50427 -81.58147 4955 ft 196 kts 269°
2026-05-05 00:21 41.50468 -81.59944 4740 ft 195 kts 269°
2026-05-05 00:22 41.50509 -81.61775 4519 ft 196 kts 269°
2026-05-05 00:22 41.50549 -81.63567 4306 ft 195 kts 268°
2026-05-05 00:22 41.50588 -81.65385 4089 ft 196 kts 266°
2026-05-05 00:22 41.50348 -81.67114 3892 ft 191 kts 251°
2026-05-05 00:23 41.49943 -81.68819 3661 ft 192 kts 251°
2026-05-05 00:23 41.49541 -81.70505 3425 ft 190 kts 250°
2026-05-05 00:23 41.49140 -81.72179 3186 ft 189 kts 250°
2026-05-05 00:23 41.48573 -81.73734 2945 ft 189 kts 235°
2026-05-05 00:24 41.47758 -81.75109 2668 ft 191 kts 230°
2026-05-05 00:24 41.46898 -81.76445 2407 ft 187 kts 231°
2026-05-05 00:24 41.46099 -81.77714 2181 ft 167 kts 230°
2026-05-05 00:24 41.45410 -81.78799 1967 ft 141 kts 230°
2026-05-05 00:25 41.44821 -81.79731 1760 ft 122 kts 229°
2026-05-05 00:25 41.44304 -81.80547 1587 ft 110 kts 229°
2026-05-05 00:25 41.43811 -81.81323 1462 ft 107 kts 229°
2026-05-05 00:25 41.43339 -81.82069 1323 ft 106 kts 228°
2026-05-05 00:26 41.42845 -81.82858 1182 ft 108 kts 227°
2026-05-05 00:26 41.42353 -81.83614 1028 ft 103 kts 227°
2026-05-05 00:26 41.41869 -81.84376 911 ft 118 kts 227°
2026-05-05 00:26 41.41346 -81.85204 781 ft 110 kts 225°
2026-05-05 00:27 41.40966 -81.85801 771 ft 52 kts 228°
2026-05-05 00:27 41.40831 -81.85949 770 ft 18 kts 124°
2026-05-05 00:27 41.40786 -81.85877 771 ft 10 kts 197°
2026-05-05 00:27 41.40727 -81.85953 771 ft 13 kts 228°
2026-05-05 00:28 41.40652 -81.86072 770 ft 19 kts 231°
2026-05-05 00:28 41.40564 -81.86203 769 ft 15 kts 211°
2026-05-05 00:28 41.40475 -81.86153 770 ft 14 kts 139°
2026-05-05 00:28 41.40392 -81.86057 772 ft 17 kts 139°
2026-05-05 00:29 41.40295 -81.85947 774 ft 15 kts 120°
2026-05-05 00:29 41.40332 -81.85875 773 ft 10 kts 38°
2026-05-05 00:29 41.40391 -81.85788 774 ft 15 kts 51°
2026-05-05 00:29 41.40467 -81.85667 776 ft 17 kts 52°
2026-05-05 00:30 41.40536 -81.85558 778 ft 16 kts 51°
2026-05-05 00:30 41.40623 -81.85422 778 ft 18 kts 50°
2026-05-05 00:30 41.40655 -81.85306 780 ft 13 kts 95°
2026-05-05 00:30 41.40647 -81.85164 780 ft 16 kts 94°
2026-05-05 00:31 41.40639 -81.84994 783 ft 19 kts 93°
2026-05-05 00:31 41.40632 -81.84827 783 ft 17 kts 91°
2026-05-05 00:31 41.40625 -81.84686 786 ft 13 kts 94°
2026-05-05 00:31 41.40620 -81.84547 787 ft 17 kts 94°
2026-05-05 00:32 41.40612 -81.84376 788 ft 19 kts 93°
2026-05-05 00:32 41.40610 -81.84218 789 ft 14 kts 90°
2026-05-05 00:32 41.40617 -81.84119 788 ft 11 kts 73°
2026-05-05 00:32 41.40625 -81.84095 788 ft 0 kts 58°
2026-05-05 00:33 41.40636 -81.84079 789 ft 4 kts 40°
2026-05-05 00:33 41.40667 -81.84071 789 ft 1 kts 313°
2026-05-05 00:33 41.40687 -81.84096 789 ft 4 kts 316°
2026-05-05 00:33 41.40701 -81.84113 789 ft 1 kts 319°
2026-05-05 00:34 41.40702 -81.84115 789 ft 0 kts 318°